Date String (YYYY-MM-DD hh:mm:ss) UTC,Instrument flags,absolute air pressure of the measurement (hPa),sample flow rate (lpm),inlet stack bypass flow (lpm),air temperature of the measurement (°C),ambient temperature measured by the external sensor (°C),aerosol sample conditioner tube jacket temperature (°C),OPC LED temperature (°C),internal box temperature (°C),relative humidity of the measurement (%),span deviation,mass concentration of particles derived from Lorenz-Mie calculation of OPC scattering (μg/m³),mass concentration of particles derived from Lorenz-Mie calculation of OPC scattering (μg/m³),mass concentration of particles derived from Lorenz-Mie calculation of OPC scattering (μg/m³)
DateTimeUTC,F1_M11,P_M11,Q1_M11,Q2_M11,T1_M11,T2_M11,T3_M11,T4_M11,T5_M11,U1_M11,ZSPAN_M11,X2_M11,X0_M11,X1_M11
2024-03-06 22:00:00,SystemResetWarning,0819.5,5.00,000.00,022.8,022.1,000.0,031.2,024.6,09.4,0000.0,0001.62,0006.69,0000.84
2024-03-06 22:01:00,SystemResetWarning,0819.5,5.01,000.00,022.8,022.1,000.0,031.2,024.6,09.6,0000.0,0001.57,0006.54,0000.84
2024-03-06 22:02:00,SystemResetWarning,0819.4,5.01,000.00,022.8,022.1,000.0,031.2,024.6,09.7,0000.0,0001.59,0006.30,0000.85
2024-03-06 22:03:00,SystemResetWarning,0819.4,5.00,000.00,022.8,022.1,000.0,031.2,024.6,09.7,0000.0,0001.58,0005.75,0000.85
2024-03-06 22:04:00,SystemResetWarning,0819.4,4.99,000.00,022.8,022.1,000.0,031.2,024.6,09.5,0000.0,0001.58,0005.33,0000.85
2024-03-06 22:05:00,SystemResetWarning,0819.5,5.01,000.00,022.8,022.1,000.0,031.2,024.6,09.5,0000.0,0001.54,0004.62,0000.84
2024-03-06 22:06:00,SystemResetWarning,0819.5,5.01,000.00,022.8,022.1,000.0,031.2,024.6,09.5,0000.0,0001.52,0004.28,0000.83
2024-03-06 22:07:00,SystemResetWarning,0819.4,5.00,000.00,022.8,022.1,000.0,031.2,024.6,09.5,0000.0,0001.44,0003.88,0000.82
2024-03-06 22:08:00,SystemResetWarning,0819.5,4.99,000.00,022.8,022.1,000.0,031.2,024.6,09.5,0000.0,0001.44,0003.92,0000.81
2024-03-06 22:09:00,SystemResetWarning,0819.4,4.99,000.00,022.8,022.1,000.0,031.2,024.6,09.3,0000.0,0001.50,0004.12,0000.81
2024-03-06 22:10:00,SystemResetWarning,0819.3,5.00,000.00,022.8,022.1,000.0,031.2,024.6,08.9,0000.0,0001.51,0004.13,0000.80
2024-03-06 22:11:00,SystemResetWarning,0819.4,5.01,000.00,022.8,022.1,000.0,031.2,024.6,08.8,0000.0,0001.60,0004.42,0000.81
2024-03-06 22:12:00,SystemResetWarning,0819.4,5.01,000.00,022.8,022.1,000.0,031.3,024.6,09.1,0000.0,0001.60,0004.51,0000.81
2024-03-06 22:13:00,SystemResetWarning,0819.3,4.99,000.00,022.8,022.1,000.0,031.2,024.6,08.4,0000.0,0001.55,0004.46,0000.80
2024-03-06 22:14:00,SystemResetWarning,0819.3,4.99,000.00,022.8,022.1,000.0,031.3,024.6,07.8,0000.0,0001.56,0004.51,0000.80
2024-03-06 22:15:00,SystemResetWarning,0819.4,4.99,000.00,022.8,022.1,000.0,031.2,024.6,08.3,0000.0,0001.57,0004.71,0000.78
2024-03-06 22:16:00,SystemResetWarning,0819.4,5.00,000.00,022.8,022.1,000.0,031.2,024.6,08.7,0000.0,0001.58,0004.10,0000.79
2024-03-06 22:17:00,SystemResetWarning,0819.5,5.01,000.00,022.8,022.1,000.0,031.2,024.6,09.0,0000.0,0001.63,0003.91,0000.79
2024-03-06 22:18:00,SystemResetWarning,0819.4,5.00,000.00,022.8,022.1,000.0,031.2,024.6,09.2,0000.0,0001.72,0004.26,0000.80
2024-03-06 22:19:00,SystemResetWarning,0819.4,5.01,000.00,022.8,022.1,000.0,031.2,024.6,09.1,0000.0,0001.70,0004.13,0000.81
2024-03-06 22:20:00,SystemResetWarning,0819.5,5.01,000.00,022.8,022.1,000.0,031.2,024.6,09.3,0000.0,0001.62,0003.87,0000.81
2024-03-06 22:21:00,SystemResetWarning,0819.5,5.00,000.00,022.8,022.1,000.0,031.2,024.6,09.1,0000.0,0001.58,0003.87,0000.81
2024-03-06 22:22:00,SystemResetWarning,0819.7,5.00,000.00,022.8,022.1,000.0,031.2,024.6,09.3,0000.0,0001.58,0004.34,0000.82
2024-03-06 22:23:00,SystemResetWarning,0819.7,5.00,000.00,022.8,022.0,000.0,031.2,024.6,09.3,0000.0,0001.58,0004.33,0000.82
2024-03-06 22:24:00,SystemResetWarning,0819.7,4.99,000.00,022.8,022.0,000.0,031.2,024.6,09.3,0000.0,0001.59,0004.23,0000.83
2024-03-06 22:25:00,SystemResetWarning,0819.6,4.99,000.00,022.8,022.0,000.0,031.2,024.6,09.0,0000.0,0001.62,0004.34,0000.83
2024-03-06 22:26:00,SystemResetWarning,0819.5,5.01,000.00,022.8,022.0,000.0,031.2,024.6,08.9,0000.0,0001.62,0004.26,0000.83
2024-03-06 22:27:00,SystemResetWarning,0819.5,5.01,000.00,022.8,022.0,000.0,031.2,024.6,08.9,0000.0,0001.59,0004.03,0000.82
2024-03-06 22:28:00,SystemResetWarning,0819.5,4.99,000.00,022.8,022.0,000.0,031.2,024.5,09.0,0000.0,0001.60,0004.03,0000.82
2024-03-06 22:29:00,SystemResetWarning,0819.5,5.00,000.00,022.8,022.0,000.0,031.2,024.5,09.0,0000.0,0001.62,0003.90,0000.84
2024-03-06 22:30:00,SystemResetWarning,0819.5,4.99,000.00,022.8,022.0,000.0,031.2,024.6,09.1,0000.0,0001.67,0003.98,0000.83
2024-03-06 22:31:00,SystemResetWarning,0819.5,5.00,000.00,022.8,022.0,000.0,031.2,024.5,08.8,0000.0,0001.74,0004.15,0000.83
2024-03-06 22:32:00,SystemResetWarning,0819.6,5.01,000.00,022.8,022.0,000.0,031.2,024.5,08.9,0000.0,0001.76,0004.22,0000.82
2024-03-06 22:33:00,SystemResetWarning,0819.6,5.01,000.00,022.8,022.0,000.0,031.2,024.5,08.9,0000.0,0001.71,0004.03,0000.80
2024-03-06 22:34:00,SystemResetWarning,0819.5,5.00,000.00,022.8,022.0,000.0,031.2,024.5,08.9,0000.0,0001.67,0004.07,0000.79
2024-03-06 22:35:00,SystemResetWarning,0819.4,5.00,000.00,022.8,022.0,000.0,031.2,024.5,08.9,0000.0,0001.73,0004.24,0000.79
2024-03-06 22:36:00,SystemResetWarning,0819.5,5.01,000.00,022.8,022.0,000.0,031.2,024.5,09.1,0000.0,0001.76,0004.29,0000.79
2024-03-06 22:37:00,SystemResetWarning,0819.4,5.00,000.00,022.7,022.0,000.0,031.2,024.5,09.0,0000.0,0001.74,0004.37,0000.81
2024-03-06 22:38:00,SystemResetWarning,0819.5,4.99,000.00,022.7,021.9,000.0,031.2,024.5,08.5,0000.0,0001.76,0005.17,0000.81
2024-03-06 22:39:00,SystemResetWarning,0819.5,5.00,000.00,022.7,021.9,000.0,031.2,024.5,08.5,0000.0,0001.80,0006.19,0000.82
2024-03-06 22:40:00,SystemResetWarning,0819.5,4.99,000.00,022.7,021.9,000.0,031.2,024.5,08.6,0000.0,0001.73,0006.03,0000.81
2024-03-06 22:41:00,SystemResetWarning,0819.4,5.00,000.00,022.7,021.9,000.0,031.2,024.5,08.7,0000.0,0001.70,0006.08,0000.80
2024-03-06 22:42:00,SystemResetWarning,0819.5,5.00,000.00,022.7,021.9,000.0,031.2,024.4,08.5,0000.0,0001.68,0006.69,0000.81
2024-03-06 22:43:00,SystemResetWarning,0819.5,5.00,000.00,022.7,021.9,000.0,031.1,024.4,08.5,0000.0,0001.69,0007.51,0000.82
2024-03-06 22:44:00,SystemResetWarning,0819.5,5.00,000.00,022.7,021.9,000.0,031.1,024.4,08.7,0000.0,0001.73,0007.64,0000.84
2024-03-06 22:45:00,SystemResetWarning,0819.5,5.00,000.00,022.7,021.9,000.0,031.1,024.4,08.7,0000.0,0001.83,0007.70,0000.86
2024-03-06 22:46:00,SystemResetWarning,0819.6,5.00,000.00,022.7,021.8,000.0,031.1,024.4,08.7,0000.0,0001.80,0007.73,0000.86
2024-03-06 22:47:00,SystemResetWarning,0819.8,5.00,000.00,022.6,021.8,000.0,031.1,024.4,08.8,0000.0,0001.86,0007.92,0000.86
2024-03-06 22:48:00,SystemResetWarning,0819.8,5.00,000.00,022.6,021.8,000.0,031.1,024.4,09.0,0000.0,0001.84,0007.85,0000.86
2024-03-06 22:49:00,SystemResetWarning,0819.6,5.00,000.00,022.6,021.8,000.0,031.1,024.4,08.8,0000.0,0001.82,0007.79,0000.86
2024-03-06 22:50:00,SystemResetWarning,0819.8,5.00,000.00,022.6,021.8,000.0,031.1,024.4,08.9,0000.0,0001.82,0007.89,0000.86
2024-03-06 22:51:00,SystemResetWarning,0819.8,5.00,000.00,022.6,021.8,000.0,031.1,024.4,08.7,0000.0,0001.84,0008.00,0000.86
2024-03-06 22:52:00,SystemResetWarning,0819.8,4.99,000.00,022.6,021.8,000.0,031.1,024.4,08.6,0000.0,0001.82,0007.95,0000.86
2024-03-06 22:53:00,SystemResetWarning,0819.8,4.99,000.00,022.6,021.8,000.0,031.1,024.3,08.6,0000.0,0001.77,0007.56,0000.86
2024-03-06 22:54:00,SystemResetWarning,0819.7,5.01,000.00,022.6,021.8,000.0,031.1,024.4,08.7,0000.0,0001.72,0006.69,0000.85
2024-03-06 22:55:00,SystemResetWarning,0819.7,5.01,000.00,022.6,021.8,000.0,031.1,024.3,08.8,0000.0,0001.70,0006.26,0000.84
2024-03-06 22:56:00,SystemResetWarning,0819.8,5.00,000.00,022.6,021.8,000.0,031.1,024.3,08.8,0000.0,0001.64,0006.05,0000.82
2024-03-06 22:57:00,SystemResetWarning,0819.8,5.00,000.00,022.6,021.8,000.0,031.0,024.3,08.9,0000.0,0001.68,0005.99,0000.83
2024-03-06 22:58:00,SystemResetWarning,0819.8,4.99,000.00,022.6,021.8,000.0,031.0,024.3,08.8,0000.0,0001.61,0005.61,0000.83
2024-03-06 22:59:00,SystemResetWarning,0819.7,5.00,000.00,022.6,021.8,000.0,031.0,024.3,08.9,0000.0,0001.58,0005.41,0000.83
